Starlink 5853

operational
NORAD ID: 56881 Int'l Des: 2023-083 Owner: SPXS Country: US Constellation: starlink
LEOCIRCULAR

Über Starlink 5853

Beschreibung wird geladen...

Live-Position

3D-Globus wird geladen...

Nächste Überflüge

Höhenverlauf

Altitude vs Time

uPlot chart will show altitude changes over time

Zweizeiliger Elementsatz

1 56881U 23083F 25301.11174666 .00000394 00000-0 44241-4 0 9992
2 56881 43.0034 82.4784 0001234 273.2665 86.8036 15.02536497131725
Epoch: 28. Okt. 2025 • Age: 23 hours

Aktueller Status

Höhe 560.6 km
Geschwindigkeit 7.59 km/s
Subsatellitenpunkt 31.97°N, 62.82°E
Startdatum 12. Juni 2023
Alter 2.3 years
Typ internet

Technische Details

Klassifizierung Payload
Masse 305.00 kg
Trockenmasse 290.00 kg
Gesamtmasse 305.00 kg
Länge 0.20 m
Durchmesser 2.80 m
Spannweite 9.00 m
Form Box + pan
Hersteller SPXS
Bus-Typ Starlink
Phasenstatus In Orbit
Besitzer/Staat SPXS/US

Große Konstellationen

Loading constellations...